Regional Weather Roundup
Issued by NWS

Home | Current Version | Previous Version | Graphics & Text | Print | Product List | Glossary On
Versions: 1 2 3 4 5 6 7 8 9 10 11 12 13 14 15 16 17 18 19 20 21 22 23 24 25 26 27 28 29 30 31 32 33 34 35 36 37 38 39 40 41 42 43 44 45 46 47 48 49
000
ASUS45 KSLC 121910
RWRUT

UTAH REGIONAL WEATHER ROUNDUP
NATIONAL WEATHER SERVICE SALT LAKE CITY UT
1200 PM MST FRI FEB 12 2016

UTZ001>011-023>025-122000-

NORTHERN UTAH

CITY           SKY/WX    TMP DP  RH WIND       PRES   REMARKS
BRIGHAM CITY   CLOUDY    26  25  93 CALM      30.45F
HILL AFB       MOSUNNY   30  28  93 SW3       30.41F FOG
LOGAN          CLOUDY    22  22 100 SE3       30.43F FOG
OGDEN          CLOUDY    28  26  92 CALM      30.42F FOG
PROVO AIRPORT  FOG       23  21  93 CALM      30.43F VSB 1/8
SALT LAKE CITY FOG       30  27  88 N5        30.43F VSB 1   WCI  25
VERNAL         CLOUDY    27  19  72 CALM      30.44F HAZE
WENDOVER       CLOUDY    28  25  86 CALM      30.44S
HEBER CITY     MOSUNNY   32  21  64 CALM      30.37F
WEST JORDAN    CLOUDY    30  28  93 CALM      30.43S

$$

UTZ012>022-026-027-122000-

SOUTHERN/CENTRAL UTAH

CITY           SKY/WX    TMP DP  RH WIND       PRES   REMARKS
BLANDING       SUNNY     42  28  58 CALM      30.50F
BRYCE CANYON   SUNNY     43  21  41 SE9       30.44F
CEDAR CITY     MOSUNNY   40  23  50 CALM      30.36F
DELTA          CLOUDY    17  15  94 CALM      30.43F
HANKSVILLE     SUNNY     43  32  65 CALM      30.46F
MILFORD        CLOUDY    15  14  95 CALM      30.40F FOG
MOAB/CYNLANDS  SUNNY     43  29  57 NW7       30.42F
PRICE          SUNNY     41  26  55 S3        30.42S
ST GEORGE      PTCLDY    54  28  37 W3        30.34F
KANAB          SUNNY     63  27  25 NE5       30.38F

$$

REGIONAL REPORTS     COLORADO/ARIZONA

CITY           SKY/WX    TMP DP  RH WIND       PRES   REMARKS
CRAIG, CO      MIX PCPN  26  18  71 SW8       30.42F WCI  18
GRAND JUNCTION SUNNY     42  27  55 E3        30.42F
RIFLE          SUNNY     36  18  48 CALM      30.44F
MONTROSE       SUNNY     44  23  43 CALM      30.44F
CORTEZ         SUNNY     47  23  38 S3        30.42F
PAGE, AZ       SUNNY     48  31  51 N5        30.41F
GRAND CANYON   SUNNY     64  12  13 S7        30.41F
KINGMAN        SUNNY     66  22  18 N5        30.27F
FLAGSTAFF      SUNNY     57  18  21 NE8       30.42F

$$

REGIONAL REPORTS    NEVADA/IDAHO/WYOMING

CITY           SKY/WX    TMP DP  RH WIND       PRES   REMARKS
LAS VEGAS, NV  MOSUNNY   65  25  22 N3        30.23F
ELY            MOSUNNY   35  22  58 S12       30.36F WCI  27
ELKO           MOSUNNY   26  18  71 E5        30.40F WCI  20
POCATELLO, ID  CLOUDY    37  27  67 NW5       30.37S WCI  33
BURLEY           N/A    N/A N/A N/A MISG      30.31F
EVANSTON, WY   CLOUDY    37  19  48 SW8       30.37F WCI  31
ROCK SPRINGS   SUNNY     45  22  40 SW9       30.36F
KEMMERER       CLOUDY    37  19  48 NW9       30.37F WCI  31

$$



USA.gov is the U.S. government's official web portal to all federal, state and local government web resources and services.